EW5507 Weather Reports


time (UTC)temp
C
wind
direction
speed
KPH
gust
KPH
rain 1hr
cm
rain 24hr
cm
rain mn
cm
humidity
%
barometer
mb
20260507142539 12 110 1.6 3.2 0.00 0.00 0.00 45 1009.9
20260507142036 12 126 0.0 1.6 0.00 0.00 0.00 46 1009.5
20260507141532 12 116 0.0 1.6 0.00 0.00 0.00 47 1009.5
20260507141029 12 18 4.8 4.8 0.00 0.00 0.00 47 1009.5
20260507140526 12 64 4.8 4.8 0.00 0.00 0.00 48 1009.5
20260507140024 12 352 4.8 8.0 0.00 0.00 0.00 48 1009.9
20260507135520 12 128 0.0 1.6 0.00 0.00 0.00 50 1009.5
20260507135017 12 144 0.0 1.6 0.00 0.00 0.00 51 1009.5
20260507134514 11 132 0.0 0.0 0.00 0.00 0.00 50 1009.5
20260507134009 11 345 1.6 3.2 0.00 0.00 0.00 51 1009.5
20260507133506 11 129 1.6 1.6 0.00 0.00 0.00 52 1009.5
20260507133004 11 133 0.0 1.6 0.00 0.00 0.00 52 1009.5
20260507132501 11 152 0.0 0.0 0.00 0.00 0.00 53 1009.5
20260507131957 11 79 1.6 3.2 0.00 0.00 0.00 53 1009.5
20260507131454 11 120 0.0 1.6 0.00 0.00 0.00 52 1009.5
20260507130950 11 111 0.0 1.6 0.00 0.00 0.00 53 1009.5
20260507130448 11 125 1.6 3.2 0.00 0.00 0.00 53 1009.2
20260507125946 10 89 1.6 1.6 0.00 0.00 0.00 53 1009.2
20260507125444 10 359 0.0 3.2 0.00 0.00 0.00 54 1009.2
20260507124941 10 75 0.0 0.0 0.00 0.00 0.00 54 1009.2
20260507124438 10 348 3.2 4.8 0.00 0.00 0.00 55 1009.2
20260507123936 10 124 0.0 0.0 0.00 0.00 0.00 55 1009.2
20260507123433 10 129 0.0 0.0 0.00 0.00 0.00 55 1009.2
20260507122929 10 135 0.0 0.0 0.00 0.00 0.00 56 1008.8
20260507122424 10 333 3.2 4.8 0.00 0.00 0.00 56 1008.8
20260507121921 10 62 4.8 4.8 0.00 0.00 0.00 56 1008.8
20260507121416 10 1 4.8 8.0 0.00 0.00 0.00 56 1008.5
20260507120913 10 44 4.8 8.0 0.00 0.00 0.00 56 1008.5
20260507120409 10 103 3.2 4.8 0.00 0.00 0.00 56 1008.5
20260507115906 10 98 0.0 0.0 0.00 0.00 0.00 56 1008.5
20260507115402 10 133 0.0 0.0 0.00 0.00 0.00 56 1008.5
20260507114858 11 87 1.6 3.2 0.00 0.00 0.00 57 1008.5
20260507114355 11 354 4.8 4.8 0.00 0.00 0.00 57 1008.5
20260507113852 11 342 4.8 4.8 0.00 0.00 0.00 57 1008.5
20260507113349 11 81 1.6 3.2 0.00 0.00 0.00 57 1008.5
20260507112846 11 145 0.0 0.0 0.00 0.00 0.00 57 1008.5
20260507112343 11 105 0.0 1.6 0.00 0.00 0.00 57 1008.5
20260507111841 11 112 3.2 8.0 0.00 0.00 0.00 57 1008.0
20260507111338 11 94 1.6 3.2 0.00 0.00 0.00 57 1008.0
20260507110834 11 36 4.8 4.8 0.00 0.00 0.00 57 1008.0
20260507110330 11 79 3.2 4.8 0.00 0.00 0.00 58 1008.0
20260507105827 11 94 1.6 4.8 0.00 0.00 0.00 58 1008.0
20260507105324 11 56 3.2 4.8 0.00 0.00 0.00 58 1007.7
20260507104821 11 94 0.0 1.6 0.00 0.00 0.00 59 1008.0
20260507104317 11 82 1.6 3.2 0.00 0.00 0.00 59 1008.0
20260507103813 11 71 3.2 4.8 0.00 0.00 0.00 59 1008.0
20260507103309 11 345 1.6 3.2 0.00 0.00 0.00 59 1007.7
20260507102806 11 127 0.0 0.0 0.00 0.00 0.00 58 1008.0
20260507102306 11 35 3.2 3.2 0.00 0.00 0.00 59 1007.7
20260507101759 11 119 1.6 1.6 0.00 0.00 0.00 59 1008.0
20260507101254 11 103 0.0 1.6 0.00 0.00 0.00 59 1008.0
20260507100751 11 130 0.0 1.6 0.00 0.00 0.00 59 1008.0
20260507100249 11 100 1.6 1.6 0.00 0.00 0.00 59 1007.7
20260507095747 11 93 1.6 3.2 0.00 0.00 0.00 58 1007.7
20260507095243 11 28 3.2 4.8 0.00 0.00 0.00 58 1007.4
20260507094740 11 102 0.0 1.6 0.00 0.00 0.00 58 1007.7
20260507094237 12 287 0.0 1.6 0.00 0.00 0.00 58 1007.7
20260507093734 12 128 0.0 0.0 0.00 0.00 0.00 57 1007.7
20260507093233 12 121 0.0 0.0 0.00 0.00 0.00 57 1007.7
20260507092730 12 116 0.0 1.6 0.00 0.00 0.00 57 1007.7
20260507092226 12 81 1.6 1.6 0.00 0.00 0.00 57 1007.7
20260507091722 12 124 0.0 0.0 0.00 0.00 0.00 57 1007.7
20260507091219 12 98 0.0 1.6 0.00 0.00 0.00 57 1007.7
20260507090719 12 99 1.6 1.6 0.00 0.00 0.00 57 1007.4
20260507090216 12 120 0.0 1.6 0.00 0.00 0.00 57 1007.7
20260507085714 12 4 3.2 4.8 0.00 0.00 0.00 56 1007.7
20260507085210 12 122 0.0 1.6 0.00 0.00 0.00 56 1007.4
20260507084707 12 111 0.0 1.6 0.00 0.00 0.00 56 1007.7
20260507084204 12 133 0.0 0.0 0.00 0.00 0.00 56 1007.7
20260507083701 12 117 1.6 1.6 0.00 0.00 0.00 56 1007.4
20260507083158 12 134 0.0 0.0 0.00 0.00 0.00 55 1007.7
20260507082654 12 130 0.0 0.0 0.00 0.00 0.00 55 1007.4
20260507082150 12 129 0.0 0.0 0.00 0.00 0.00 55 1007.7
20260507081647 12 127 0.0 0.0 0.00 0.00 0.00 55 1007.4
20260507081143 12 77 0.0 1.6 0.00 0.00 0.00 55 1007.7
20260507080640 12 1 1.6 3.2 0.00 0.00 0.00 54 1007.7
20260507080136 12 104 0.0 1.6 0.00 0.00 0.00 54 1007.4
20260507075631 12 118 0.0 0.0 0.00 0.00 0.00 54 1007.7
20260507075127 12 111 1.6 1.6 0.00 0.00 0.00 54 1007.7
20260507074624 12 10 4.8 4.8 0.00 0.00 0.00 54 1007.7
20260507074123 12 144 1.6 1.6 0.00 0.00 0.00 55 1007.7
20260507073619 12 139 0.0 1.6 0.00 0.00 0.00 55 1008.0
20260507073115 12 90 1.6 4.8 0.00 0.00 0.00 56 1007.7
20260507072613 12 138 1.6 3.2 0.00 0.00 0.00 56 1007.7
20260507072110 12 5 0.0 1.6 0.00 0.00 0.00 55 1007.7
20260507071607 12 1 0.0 0.0 0.00 0.00 0.00 55 1007.7
20260507071103 12 94 1.6 3.2 0.00 0.00 0.00 56 1008.0
20260507070601 12 9 1.6 3.2 0.00 0.00 0.00 55 1007.7
20260507070058 12 166 0.0 1.6 0.00 0.00 0.00 56 1007.7
20260507065554 12 160 0.0 1.6 0.00 0.00 0.00 57 1007.7
20260507065051 12 167 0.0 1.6 0.00 0.00 0.00 56 1008.0
20260507064549 12 127 0.0 1.6 0.00 0.00 0.00 55 1008.0
20260507064047 12 120 0.0 0.0 0.00 0.00 0.00 55 1007.7
20260507063544 13 148 0.0 0.0 0.00 0.00 0.00 55 1007.7
20260507063041 13 159 0.0 0.0 0.00 0.00 0.00 55 1008.0
20260507062538 13 165 0.0 1.6 0.00 0.00 0.00 55 1007.7
20260507062036 13 159 0.0 0.0 0.00 0.00 0.00 53 1007.7
20260507061533 13 159 0.0 0.0 0.00 0.00 0.00 52 1007.4
20260507061031 13 157 0.0 0.0 0.00 0.00 0.00 52 1007.7
20260507060529 13 147 0.0 0.0 0.00 0.00 0.00 53 1007.7
20260507060025 13 14 0.0 0.0 0.00 0.00 0.00 52 1008.5
20260507055520 13 13 1.6 3.2 0.00 0.00 0.00 53 1008.5
20260507055016 13 10 1.6 3.2 0.00 0.00 0.00 53 1008.5
20260507054512 13 110 0.0 1.6 0.00 0.00 0.00 54 1008.5
20260507054010 13 147 0.0 0.0 0.00 0.00 0.00 55 1008.0
20260507053508 13 100 1.6 1.6 0.00 0.00 0.00 54 1008.0
20260507053006 13 137 0.0 0.0 0.00 0.00 0.00 54 1007.7
20260507052503 13 129 0.0 0.0 0.00 0.00 0.00 54 1007.7
20260507051959 13 149 0.0 0.0 0.00 0.00 0.00 54 1007.7
20260507051457 12 137 0.0 0.0 0.00 0.00 0.00 54 1007.7
20260507050954 12 151 0.0 0.0 0.00 0.00 0.00 55 1008.0
20260507050450 12 123 0.0 1.6 0.00 0.00 0.00 55 1008.5
20260507045947 12 135 0.0 0.0 0.00 0.00 0.00 57 1008.0
20260507045444 12 145 0.0 0.0 0.00 0.00 0.00 58 1007.7
20260507044941 13 147 0.0 1.6 0.00 0.00 0.00 58 1008.0
20260507044438 13 135 0.0 1.6 0.00 0.00 0.00 59 1008.0
20260507043934 13 153 0.0 0.0 0.00 0.00 0.00 58 1007.7
20260507043430 13 149 0.0 0.0 0.00 0.00 0.00 57 1007.7
20260507042927 13 130 0.0 1.6 0.00 0.00 0.00 57 1007.7
20260507042424 13 63 0.0 1.6 0.00 0.00 0.00 56 1007.4
20260507041919 13 147 0.0 0.0 0.00 0.00 0.00 56 1007.4
20260507041416 13 146 0.0 0.0 0.00 0.00 0.00 55 1007.7
20260507040914 14 146 0.0 0.0 0.00 0.00 0.00 55 1007.7
20260507040409 14 145 0.0 0.0 0.00 0.00 0.00 54 1007.4
20260507035905 14 137 0.0 0.0 0.00 0.00 0.00 54 1007.4
20260507035402 14 14 1.6 1.6 0.00 0.00 0.00 53 1007.4
20260507034859 15 113 0.0 1.6 0.00 0.00 0.00 52 1007.4
20260507034355 15 89 0.0 1.6 0.00 0.00 0.00 52 1007.4
20260507033853 15 124 0.0 1.6 0.00 0.00 0.00 52 1007.0
20260507033351 15 86 4.8 8.0 0.00 0.00 0.00 50 1007.0
20260507032848 15 163 0.0 0.0 0.00 0.00 0.00 49 1007.0
20260507032345 15 145 1.6 1.6 0.00 0.00 0.00 49 1006.6
20260507031841 16 149 0.0 0.0 0.00 0.00 0.00 45 1006.2
20260507031338 16 182 3.2 4.8 0.00 0.00 0.00 44 1006.2
20260507030834 16 151 1.6 3.2 0.00 0.00 0.00 49 1006.2
20260507030332 16 150 4.8 8.0 0.00 0.00 0.00 46 1006.6
20260507025828 16 141 0.0 0.0 0.00 0.00 0.00 45 1007.4
20260507025326 16 166 3.2 4.8 0.00 0.00 0.00 45 1007.4
20260507024824 16 341 6.4 9.7 0.00 0.00 0.00 43 1007.4
20260507024321 16 126 1.6 1.6 0.00 0.00 0.00 42 1007.4
20260507023816 17 155 0.0 1.6 0.00 0.00 0.00 41 1007.0
20260507023313 17 74 0.0 3.2 0.00 0.00 0.00 39 1007.4
20260507022810 17 151 4.8 4.8 0.00 0.00 0.00 37 1007.4
20260507022307 17 175 3.2 3.2 0.00 0.00 0.00 37 1006.6
20260507021803 17 161 1.6 3.2 0.00 0.00 0.00 36 1007.0
20260507021259 17 135 0.0 1.6 0.00 0.00 0.00 38 1007.4
20260507020757 17 71 4.8 4.8 0.00 0.00 0.00 31 1007.4
20260507020253 17 159 0.0 0.0 0.00 0.00 0.00 33 1007.4
20260507015751 18 180 0.0 0.0 0.00 0.00 0.00 30 1007.0
20260507015248 18 162 1.6 1.6 0.00 0.00 0.00 30 1007.0
20260507014745 18 177 1.6 1.6 0.00 0.00 0.00 30 1006.6
20260507014241 18 175 3.2 3.2 0.00 0.00 0.00 31 1006.6
20260507013738 18 184 3.2 3.2 0.00 0.00 0.00 30 1006.6
20260507013235 18 191 1.6 3.2 0.00 0.00 0.00 30 1006.2
20260507012732 18 184 3.2 3.2 0.00 0.00 0.00 30 1006.2
20260507012228 18 174 4.8 4.8 0.00 0.00 0.00 30 1005.9
20260507011726 18 185 1.6 3.2 0.00 0.00 0.00 30 1005.9
20260507011222 18 181 1.6 1.6 0.00 0.00 0.00 30 1005.9
20260507010721 18 171 0.0 1.6 0.00 0.00 0.00 29 1005.9
20260507010217 18 192 1.6 3.2 0.00 0.00 0.00 30 1006.2
20260507005716 18 170 0.0 1.6 0.00 0.00 0.00 29 1006.2
20260507005211 18 149 0.0 0.0 0.00 0.00 0.00 30 1006.2
20260507004708 18 163 0.0 1.6 0.00 0.00 0.00 29 1005.9
20260507004206 18 167 0.0 0.0 0.00 0.00 0.00 29 1005.9
20260507003702 18 194 3.2 3.2 0.00 0.00 0.00 29 1005.9
20260507003157 19 169 1.6 1.6 0.00 0.00 0.00 30 1005.9
20260507002654 19 38 3.2 3.2 0.00 0.00 0.00 29 1005.9
20260507002149 19 5 3.2 4.8 0.00 0.00 0.00 29 1005.9
20260507001647 19 357 1.6 3.2 0.00 0.00 0.00 29 1005.9
20260507001144 19 130 0.0 1.6 0.00 0.00 0.00 29 1005.6
20260507000640 19 167 3.2 3.2 0.00 0.00 0.00 29 1005.6
20260507000135 19 167 0.0 1.6 0.00 0.00 0.00 29 1005.6
20260506235633 19 337 4.8 4.8 0.00 0.00 0.00 29 1005.9
20260506235133 19 190 3.2 3.2 0.00 0.00 0.00 29 1005.6
20260506234631 19 172 0.0 0.0 0.00 0.00 0.00 29 1005.6
20260506234128 19 137 1.6 3.2 0.00 0.00 0.00 29 1005.6
20260506233625 18 197 1.6 3.2 0.00 0.00 0.00 28 1005.9
20260506233122 18 159 1.6 1.6 0.00 0.00 0.00 29 1005.9
20260506232618 18 144 1.6 1.6 0.00 0.00 0.00 29 1005.6
20260506232114 19 67 1.6 3.2 0.00 0.00 0.00 29 1005.6
20260506231611 19 194 6.4 8.0 0.00 0.00 0.00 29 1005.9
20260506231109 19 180 0.0 1.6 0.00 0.00 0.00 29 1005.6
20260506230606 19 332 4.8 9.7 0.00 0.00 0.00 29 1005.6
20260506230103 19 344 0.0 0.0 0.00 0.00 0.00 29 1005.6
20260506225559 19 153 0.0 0.0 0.00 0.00 0.00 29 1005.9
20260506225055 19 164 0.0 1.6 0.00 0.00 0.00 29 1005.9
20260506224553 19 192 8.0 11.3 0.00 0.00 0.00 29 1005.9
20260506224049 19 177 0.0 1.6 0.00 0.00 0.00 29 1005.9
20260506223545 19 187 1.6 3.2 0.00 0.00 0.00 29 1005.9
20260506223042 18 352 0.0 1.6 0.00 0.00 0.00 29 1005.9
20260506222539 18 136 1.6 3.2 0.00 0.00 0.00 29 1005.9
20260506222035 18 222 3.2 4.8 0.00 0.00 0.00 29 1005.9
20260506221532 18 208 1.6 1.6 0.00 0.00 0.00 28 1006.2
20260506221030 18 206 3.2 8.0 0.00 0.00 0.00 29 1006.2
20260506220526 18 231 1.6 3.2 0.00 0.00 0.00 28 1006.2
20260506220022 18 175 3.2 3.2 0.00 0.00 0.00 29 1006.2
20260506215519 18 176 3.2 3.2 0.00 0.00 0.00 29 1006.2
20260506215015 18 134 3.2 3.2 0.00 0.00 0.00 29 1006.6
20260506214512 18 171 1.6 3.2 0.00 0.00 0.00 28 1006.2
20260506214009 18 202 9.7 11.3 0.00 0.00 0.00 29 1006.6
20260506213507 18 101 3.2 4.8 0.00 0.00 0.00 28 1007.0
20260506213004 18 84 0.0 0.0 0.00 0.00 0.00 29 1006.6
20260506212500 18 185 1.6 3.2 0.00 0.00 0.00 29 1007.0
20260506211955 18 209 4.8 8.0 0.00 0.00 0.00 29 1007.0
20260506211451 18 197 1.6 3.2 0.00 0.00 0.00 28 1007.0
20260506210948 18 8 3.2 3.2 0.00 0.00 0.00 28 1007.0
20260506210444 18 211 8.0 17.7 0.00 0.00 0.00 28 1007.4
20260506205942 18 207 4.8 4.8 0.00 0.00 0.00 28 1007.4
20260506205438 18 168 9.7 11.3 0.00 0.00 0.00 29 1007.4
20260506204934 18 189 4.8 8.0 0.00 0.00 0.00 28 1007.0
20260506204432 18 136 4.8 4.8 0.00 0.00 0.00 28 1007.0
20260506203929 18 200 1.6 3.2 0.00 0.00 0.00 29 1007.0
20260506203426 17 152 4.8 9.7 0.00 0.00 0.00 28 1007.4
20260506202923 17 334 0.0 1.6 0.00 0.00 0.00 30 1007.0
20260506202421 17 207 6.4 8.0 0.00 0.00 0.00 29 1007.4
20260506201917 17 185 1.6 3.2 0.00 0.00 0.00 30 1007.4
20260506201414 17 188 1.6 3.2 0.00 0.00 0.00 29 1007.7
20260506200911 17 201 4.8 8.0 0.00 0.00 0.00 30 1007.7
20260506200407 17 175 8.0 11.3 0.00 0.00 0.00 29 1007.7
20260506195904 17 155 6.4 12.9 0.00 0.00 0.00 29 1007.4
20260506195401 16 184 1.6 9.7 0.00 0.00 0.00 31 1007.7
20260506194857 16 188 6.4 9.7 0.00 0.00 0.00 30 1008.0
20260506194354 16 206 3.2 4.8 0.00 0.00 0.00 29 1007.7
20260506193852 16 191 4.8 8.0 0.00 0.00 0.00 30 1007.7
20260506193349 16 147 4.8 4.8 0.00 0.00 0.00 30 1007.7
20260506192845 16 225 6.4 8.0 0.00 0.00 0.00 30 1008.0
20260506192342 16 198 11.3 14.5 0.00 0.00 0.00 31 1008.0
20260506191839 15 142 1.6 3.2 0.00 0.00 0.00 30 1008.0
20260506191335 15 199 6.4 8.0 0.00 0.00 0.00 30 1008.5
20260506190832 15 210 11.3 14.5 0.00 0.00 0.00 32 1008.0
20260506190328 15 191 6.4 11.3 0.00 0.00 0.00 32 1008.5
20260506185825 15 169 8.0 9.7 0.00 0.00 0.00 32 1008.5
20260506185322 15 183 9.7 11.3 0.00 0.00 0.00 32 1008.5
20260506184819 15 162 12.9 20.9 0.00 0.00 0.00 32 1008.5
20260506184317 15 160 6.4 9.7 0.00 0.00 0.00 32 1008.5
20260506183814 15 195 9.7 12.9 0.00 0.00 0.00 32 1008.5
20260506183309 15 186 6.4 8.0 0.00 0.00 0.00 32 1008.5
20260506182806 15 184 9.7 12.9 0.00 0.00 0.00 32 1008.5
20260506182306 15 163 11.3 16.1 0.00 0.00 0.00 32 1008.8
20260506181801 15 181 8.0 11.3 0.00 0.00 0.00 31 1008.8
20260506181259 14 185 9.7 11.3 0.00 0.00 0.00 33 1008.8
20260506180756 14 190 12.9 20.9 0.00 0.00 0.00 32 1008.8
20260506180251 14 186 8.0 11.3 0.00 0.00 0.00 32 1008.8
20260506175748 13 157 8.0 9.7 0.00 0.00 0.00 33 1009.2
20260506175245 13 195 8.0 9.7 0.00 0.00 0.00 33 1008.8
20260506174742 13 154 6.4 11.3 0.00 0.00 0.00 32 1008.8
20260506174239 13 179 8.0 12.9 0.00 0.00 0.00 34 1008.8
20260506173737 13 177 9.7 12.9 0.00 0.00 0.00 33 1009.2
20260506173233 13 165 6.4 8.0 0.00 0.00 0.00 33 1009.5
20260506172730 12 153 9.7 12.9 0.00 0.00 0.00 33 1009.2
20260506172227 12 168 8.0 11.3 0.00 0.00 0.00 35 1009.5
20260506171725 12 177 9.7 11.3 0.00 0.00 0.00 34 1009.5
20260506171222 12 117 6.4 9.7 0.00 0.00 0.00 36 1009.5
20260506170719 11 154 8.0 9.7 0.00 0.00 0.00 36 1009.5
20260506170216 11 177 11.3 12.9 0.00 0.00 0.00 37 1009.5
20260506165714 11 167 8.0 11.3 0.00 0.00 0.00 36 1009.9
20260506165211 11 161 4.8 8.0 0.00 0.00 0.00 37 1009.9
20260506164708 11 158 6.4 9.7 0.00 0.00 0.00 37 1009.9
20260506164205 11 160 9.7 12.9 0.00 0.00 0.00 37 1009.9
20260506163701 10 201 8.0 11.3 0.00 0.00 0.00 37 1009.9
20260506163157 10 167 11.3 14.5 0.00 0.00 0.00 38 1009.9
20260506162653 10 177 4.8 4.8 0.00 0.00 0.00 37 1010.3
20260506162150 10 165 11.3 12.9 0.00 0.00 0.00 37 1010.3
20260506161648 10 198 6.4 9.7 0.00 0.00 0.00 38 1009.9
20260506161144 9 135 6.4 9.7 0.00 0.00 0.00 38 1010.3
20260506160642 9 164 4.8 9.7 0.00 0.00 0.00 38 1010.3
20260506160139 8 184 4.8 8.0 0.00 0.00 0.00 39 1010.3
20260506155637 8 166 4.8 8.0 0.00 0.00 0.00 39 1010.3
20260506155134 7 163 6.4 9.7 0.00 0.00 0.00 40 1010.9
20260506153236 7 172 8.0 9.7 0.00 0.00 0.00 40 1010.6
20260506152733 7 146 6.4 8.0 0.00 0.00 0.00 41 1010.6
20260506152230 7 168 8.0 14.5 0.00 0.00 0.00 41 1010.9
20260506151729 7 148 9.7 11.3 0.00 0.00 0.00 41 1010.6
20260506151225 6 154 9.7 16.1 0.00 0.00 0.00 41 1010.9
20260506150722 6 172 9.7 12.9 0.00 0.00 0.00 42 1010.9
20260506150219 6 189 8.0 9.7 0.00 0.00 0.00 42 1010.9
20260506145716 6 205 9.7 12.9 0.00 0.00 0.00 42 1010.6
20260506145212 6 181 14.5 17.7 0.00 0.00 0.00 42 1010.9
20260506144710 5 180 11.3 12.9 0.00 0.00 0.00 43 1010.9
20260506144207 5 166 12.9 20.9 0.00 0.00 0.00 43 1011.4
20260506143704 5 165 6.4 11.3 0.00 0.00 0.00 43 1011.4
20260506143202 5 165 8.0 12.9 0.00 0.00 0.00 43 1011.4